Pensacola, FL

5:32 AM CDT on April 22, 2018 (GMT -0500)
Pensacola Regional

Weather History for KPNS - July, 2013

Change the Weather History Date:

Monday, July 15, 2013

  Actual Average Record
Temperature  
Mean Temperature 82 °F 82 °F  
Max Temperature 88 °F 90 °F 101 °F (2000)
Min Temperature 75 °F 75 °F 61 °F (1967)
Cooling Degree Days 17 17  
Month to date cooling degree days 223 255  
Year to date cooling degree days 1179 1168  
Since 1 June cooling degree days 737 720  
Growing Degree Days 32 (Base 50)    
Moisture  
Dew Point 73 °F    
Average Humidity 77    
Maximum Humidity 94    
Minimum Humidity 59    
Precipitation  
Precipitation 0.21 in 0.22 in 2.82 in (1933)
Month to date precipitation 11.35 3.53  
Year to date precipitation 41.74 34.13  
Sea Level Pressure  
Sea Level Pressure 30.10 in    
Wind  
Wind Speed 7 mph (East)    
Max Wind Speed 30 mph    
Max Gust Speed 31 mph    
Visibility 9 miles    
Events Rain    
T = Trace of Precipitation, MM = Missing Value Source: NWS Daily Summary

Daily Weather History Graph

Daily Weather History Graph

Search for Another Location

Airport or City:

Astronomy

Jul. 15, 2013 Rise Set
Actual Time 5:56 AM CDT 7:52 PM CDT
Civil Twilight 5:29 AM CDT 8:19 PM CDT
Nautical Twilight 4:57 AM CDT 8:51 PM CDT
Astronomical Twilight 4:22 AM CDT 9:26 PM CDT
Moon 12:41 PM CDT (7/15) No Moon Set
Length of Visible Light 14h 49m
Length of Day
13h 55m
Waxing Crescent, 45% of the Moon is Illuminated
Jul 15
Waxing Crescent
Jul 15
First Quarter
Jul 22
Full
Jul 29
Last Quarter
Aug 6
New

Hourly Weather History & Observations

Time (CDT) Temp. Heat Index Dew Point Humidity Pressure Visibility Wind Dir Wind Speed Gust Speed Precip Events Conditions
12:53 AM 77.0 °F - 73.9 °F 90% 30.04 in 10.0 mi SE 4.6 mph - N/A   Clear
1:53 AM 78.1 °F - 73.0 °F 84% 30.04 in 10.0 mi SE 5.8 mph - N/A   Clear
2:53 AM 77.0 °F - 73.0 °F 88% 30.04 in 10.0 mi NE 3.5 mph - N/A   Clear
3:53 AM 77.0 °F - 75.0 °F 94% 30.05 in 10.0 mi NE 3.5 mph - N/A   Mostly Cloudy
4:25 AM 75.2 °F - 73.4 °F 94% 30.05 in 10.0 mi NE 4.6 mph - N/A   Scattered Clouds
4:53 AM 77.0 °F - 73.0 °F 88% 30.06 in 10.0 mi NE 5.8 mph - N/A   Mostly Cloudy
5:48 AM 77.0 °F - 73.4 °F 89% 30.08 in 7.0 mi East 9.2 mph - 0.02 in Rain Light Rain
5:53 AM 75.9 °F - 73.0 °F 91% 30.09 in 4.0 mi ESE 10.4 mph 17.3 mph 0.05 in Rain Heavy Rain
5:58 AM 75.2 °F - 71.6 °F 89% 30.08 in 2.5 mi ESE 11.5 mph - 0.02 in Rain Heavy Rain
6:22 AM 75.2 °F - 73.4 °F 94% 30.09 in 5.0 mi ESE 4.6 mph - 0.13 in Rain Rain
6:53 AM 75.9 °F - 73.0 °F 91% 30.11 in 10.0 mi East 4.6 mph - 0.15 in   Scattered Clouds
7:31 AM 75.2 °F - 73.4 °F 94% 30.11 in 10.0 mi East 5.8 mph - 0.00 in Rain Light Rain
7:53 AM 75.9 °F - 73.0 °F 91% 30.12 in 10.0 mi ESE 6.9 mph - 0.00 in   Partly Cloudy
8:23 AM 77.0 °F - 73.4 °F 89% 30.12 in 10.0 mi East 6.9 mph - 0.01 in Rain Light Rain
8:46 AM 77.0 °F - 75.2 °F 94% 30.13 in 8.0 mi ENE 6.9 mph - 0.01 in Rain Light Rain
8:53 AM 77.0 °F - 75.0 °F 94% 30.13 in 10.0 mi East 5.8 mph - 0.01 in   Overcast
9:50 AM 78.8 °F - 75.2 °F 89% 30.14 in 10.0 mi Variable 6.9 mph - N/A   Mostly Cloudy
9:53 AM 79.0 °F - 75.0 °F 88% 30.14 in 10.0 mi East 8.1 mph - N/A   Mostly Cloudy
10:14 AM 80.6 °F 86.2 °F 75.2 °F 84% 30.13 in 10.0 mi North - - N/A   Mostly Cloudy
10:53 AM 82.0 °F 87.9 °F 73.9 °F 76% 30.14 in 10.0 mi East 8.1 mph - N/A   Mostly Cloudy
11:00 AM 82.4 °F 89.5 °F 75.2 °F 79% 30.13 in 10.0 mi East 6.9 mph - N/A   Mostly Cloudy
11:46 AM 82.4 °F 88.2 °F 73.4 °F 74% 30.13 in 10.0 mi ESE 9.2 mph - N/A   Mostly Cloudy
11:53 AM 84.0 °F 91.2 °F 73.9 °F 72% 30.13 in 10.0 mi Variable 6.9 mph - N/A   Mostly Cloudy
12:53 PM 84.9 °F 90.1 °F 71.1 °F 63% 30.12 in 10.0 mi ESE 9.2 mph - N/A   Mostly Cloudy
1:53 PM 88.0 °F 94.7 °F 72.0 °F 59% 30.11 in 10.0 mi SE 16.1 mph - N/A   Scattered Clouds
2:53 PM 88.0 °F 94.7 °F 72.0 °F 59% 30.09 in 10.0 mi SE 13.8 mph - N/A   Mostly Cloudy
3:53 PM 84.9 °F 90.7 °F 72.0 °F 65% 30.08 in 10.0 mi SE 9.2 mph - N/A   Overcast
4:53 PM 84.0 °F 89.6 °F 72.0 °F 67% 30.07 in 10.0 mi SSE 10.4 mph 16.1 mph N/A   Partly Cloudy
5:53 PM 84.0 °F 89.6 °F 72.0 °F 67% 30.07 in 10.0 mi SE 4.6 mph - N/A   Scattered Clouds
6:53 PM 82.9 °F 88.0 °F 72.0 °F 69% 30.09 in 10.0 mi ESE 6.9 mph - N/A   Clear
7:53 PM 81.0 °F 86.2 °F 73.9 °F 79% 30.12 in 10.0 mi ESE 3.5 mph - N/A   Scattered Clouds
8:53 PM 80.1 °F 85.1 °F 75.0 °F 85% 30.12 in 10.0 mi ESE 3.5 mph - N/A   Scattered Clouds
9:53 PM 80.1 °F 85.1 °F 75.0 °F 85% 30.13 in 10.0 mi ESE 5.8 mph - N/A   Scattered Clouds
10:53 PM 78.1 °F - 73.0 °F 84% 30.13 in 10.0 mi ENE 4.6 mph - 0.00 in   Partly Cloudy
11:53 PM 78.1 °F - 73.0 °F 84% 30.13 in 10.0 mi ENE 6.9 mph - N/A   Partly Cloudy